sat.trackr.live / text

‹ back to catalog

STARLINK-1540

NORAD 46051 · 2020-055AA

PAYLOAD ACTIVE UNKNOWN

§ Identity

Operator
Country
US
Launch date
2020-08-07
Launch site
AFETR
Launch vehicle
Mass (kg)
RCS (m²)

Purposes: comms

External: N2YO · Heavens-Above · Gunter

§ Orbital elements

Epoch: 2026-05-25T05:21:23.535648Z

Period
94.01 min
Inclination
53.1577°
Eccentricity
0.0001127
Mean motion
15.31703720 rev/d
Perigee alt
470.0 km
Apogee alt
471.5 km
Semi-major
6,848.9 km
B*
3.6401e-5
RAAN
118.2493°
Arg perigee
84.9422°
Mean anomaly
275.1708°
Rev number
32,080

§ Raw data

STARLINK-15401 46051U 20055AA  26145.22318907  .00000765  00000+0  36401-4 0  99932 46051  53.1577 118.2493 0001127  84.9422 275.1708 15.31703720320806

JSON: /api/v1/satellites/46051 · /tle

For live sub-satellite position, see the globe view (requires WebGL).

§ Visibility from observer

Set your observer location to see the next 7 days of passes ≥ 10°. The values pass through the URL so the page stays shareable.

No JS? Fill the form by hand. The geolocation button needs JavaScript.